Weather History for Miami, FL

Change the Weather History Date:

Friday, May 24, 2013

  Actual Average Record
Temperature  
Mean Temperature 85 °F 81 °F  
Max Temperature 94 °F 88 °F 94 °F (1989)
Min Temperature 75 °F 74 °F 60 °F (1941)
Degree Days  
Heating Degree Days 0 0  
Month to date heating degree days 0 0  
Since 1 July heating degree days 70 128  
Cooling Degree Days 20 16  
Month to date cooling degree days 334 348  
Year to date cooling degree days 1341 1241  
Growing Degree Days 34 (Base 50)    
Moisture  
Dew Point 71 °F    
Average Humidity 64    
Maximum Humidity 88    
Minimum Humidity 39    
Precipitation  
Precipitation 0.07 in 0.22 in 6.37 in (1958)
Month to date precipitation 7.69 3.62  
Year to date precipitation 16.03 13.63  
Snow  
Snow 0.00 in - - ()
Month to date snowfall 0.0  
Since 1 July snowfall 0.0  
Snow Depth 0.00 in    
Sea Level Pressure  
Sea Level Pressure 30.03 in    
Wind  
Wind Speed 5 mph (WSW)    
Max Wind Speed 14 mph    
Max Gust Speed 24 mph    
Visibility 10 miles    
Events Rain , Thunderstorm    
T = Trace of Precipitation, MM = Missing Value Source: NWS Daily Summary

Daily Weather History Graph

Daily Weather History Graph

Search for Another Location

Airport:

Trip Planner

Search our weather history database for the weather conditions in past years. The results will help you decide how hot, cold, wet, or windy it might be!

Date:

Astronomy

May. 24, 2013 Rise Set
Actual Time 6:31 AM EDT 8:04 PM EDT
Civil Twilight 6:06 AM EDT 8:30 PM EDT
Nautical Twilight 5:36 AM EDT 9:00 PM EDT
Astronomical Twilight 5:04 AM EDT 9:32 PM EDT
Moon 7:47 PM EDT (5/24) 5:57 AM EDT (5/24)
Length of Visible Light 14h 23m
Length of Day
13h 33m
Full, 100% of the Moon is Illuminated
May 24
Full
May 25
Full
May 31
Last Quarter
Jun 8
New
Jun 16
First Quarter

Hourly Weather History & Observations

Time (EDT) Temp. Heat Index Dew Point Humidity Pressure Visibility Wind Dir Wind Speed Gust Speed Precip Events Conditions
12:53 AM 79.0 °F - 71.1 °F 77% 30.00 in 10.0 mi West 6.9 mph - N/A   Clear
1:53 AM 78.1 °F - 72.0 °F 81% 29.99 in 10.0 mi Calm Calm - N/A   Clear
2:53 AM 77.0 °F - 71.1 °F 82% 29.98 in 10.0 mi WSW 3.5 mph - N/A   Clear
3:53 AM 75.9 °F - 71.1 °F 85% 29.97 in 10.0 mi WSW 5.8 mph - N/A   Clear
4:53 AM 75.9 °F - 71.1 °F 85% 29.99 in 10.0 mi WSW 4.6 mph - N/A   Clear
5:53 AM 75.0 °F - 72.0 °F 90% 29.99 in 10.0 mi West 4.6 mph - N/A   Clear
6:53 AM 75.0 °F - 72.0 °F 90% 30.02 in 10.0 mi WSW 4.6 mph - N/A   Partly Cloudy
7:53 AM 77.0 °F - 73.0 °F 88% 30.04 in 10.0 mi West 4.6 mph - N/A   Scattered Clouds
8:53 AM 80.1 °F 84.2 °F 73.0 °F 79% 30.04 in 10.0 mi Variable 4.6 mph - N/A   Partly Cloudy
9:53 AM 82.9 °F 88.0 °F 72.0 °F 69% 30.05 in 10.0 mi WNW 5.8 mph - N/A   Partly Cloudy
10:53 AM 86.0 °F 93.0 °F 73.0 °F 65% 30.05 in 10.0 mi Variable 4.6 mph - N/A   Scattered Clouds
11:53 AM 90.0 °F 96.4 °F 71.1 °F 54% 30.06 in 10.0 mi NW 8.1 mph - N/A   Scattered Clouds
12:53 PM 91.0 °F 94.3 °F 66.9 °F 45% 30.05 in 10.0 mi WNW 9.2 mph - N/A   Scattered Clouds
1:53 PM 93.0 °F 94.6 °F 64.0 °F 38% 30.03 in 10.0 mi Calm Calm - N/A   Scattered Clouds
2:53 PM 87.1 °F 92.8 °F 71.1 °F 59% 30.02 in 10.0 mi ESE 9.2 mph - N/A   Mostly Cloudy
3:53 PM 87.1 °F 92.8 °F 71.1 °F 59% 30.02 in 10.0 mi SE 10.4 mph - N/A   Mostly Cloudy
4:53 PM 84.0 °F 90.2 °F 73.0 °F 69% 30.01 in 9.0 mi ESE 8.1 mph - 0.01 in Rain Light Rain
5:53 PM 82.9 °F 88.8 °F 73.0 °F 72% 30.02 in 10.0 mi ESE 10.4 mph - 0.05 in   Mostly Cloudy
6:26 PM 84.2 °F 89.6 °F 71.6 °F 66% 30.01 in 10.0 mi NE 8.1 mph - 0.00 in Thunderstorm Thunderstorm
6:53 PM 79.0 °F - 66.9 °F 66% 30.04 in 9.0 mi WSW 5.8 mph 16.1 mph 0.00 in Rain , Thunderstorm Light Thunderstorms and Rain
7:15 PM 78.8 °F - 68.0 °F 69% 30.03 in 10.0 mi West 3.5 mph - 0.01 in Rain Light Rain
7:53 PM 77.0 °F - 64.9 °F 66% 30.02 in 10.0 mi Calm Calm - 0.01 in   Mostly Cloudy
8:53 PM 80.1 °F 83.6 °F 71.1 °F 74% 30.05 in 10.0 mi ESE 8.1 mph - N/A   Mostly Cloudy
9:53 PM 80.1 °F 84.5 °F 73.9 °F 81% 30.06 in 10.0 mi East 8.1 mph - N/A   Mostly Cloudy
10:53 PM 80.1 °F 84.5 °F 73.9 °F 81% 30.07 in 10.0 mi ESE 4.6 mph - N/A   Mostly Cloudy
11:53 PM 75.9 °F - 69.1 °F 79% 30.08 in 10.0 mi West 3.5 mph - N/A   Mostly Cloudy